Regional Weather Roundup
Issued by NWS Newport/Morehead, NC

Current Version | Previous Version | Text Only | Print | Product List | Glossary On
Versions: 1 2 3 4 5 6 7 8 9 10 11 12 13 14 15 16 17 18 19 20 21 22 23 24 25 26 27 28 29 30 31 32 33 34 35 36 37 38 39 40 41 42 43 44 45 46 47 48 49 50
412
ASUS42 KMHX 271325
RWRMHX
WEATHER ROUNDUP FOR EASTERN NORTH CAROLINA
NATIONAL WEATHER SERVICE NEWPORT/MOREHEAD CITY NC
900 AM EDT SAT MAY 27 2017

NOTE: "FAIR" INDICATES FEW OR NO CLOUDS BELOW 12,000 FEET
WITH NO SIGNIFICANT WEATHER AND/OR OBSTRUCTIONS TO VISIBILITY

NCZ015>017-031-032-045>047-102-103-271400-
NORTH COAST

CITY           SKY/WX    TMP DP  RH WIND       PRES   REMARKS
EDENTON        SUNNY     74  62  66 CALM      29.95S
ELIZABETH CITY SUNNY     73  64  73 W7        29.94R
KITTY HAWK     SUNNY     75  61  62 CALM      29.94R
MANTEO         SUNNY     75  62  64 W7        29.95R

$$

NCZ045>047-081-094-103-104-271400-
CENTRAL COAST

CITY           SKY/WX    TMP DP  RH WIND       PRES   REMARKS
FRISCO         SUNNY     76  66  71 SW7       29.96S

$$

NCZ095-097-098-100-101-271400-
SOUTHERN COAST

CITY           SKY/WX    TMP DP  RH WIND       PRES   REMARKS
BEAUFORT       SUNNY     76  67  73 W9        29.98R
CEDAR ISLAND   NOT AVBL
JACKSONVILLE   SUNNY     75  62  64 W7        29.97S
PINEY ISLAND   SUNNY    N/A N/A N/A SW7       29.96S
WILMINGTON     SUNNY     76  61  59 SW6       29.99S


$$

NCZ011>013-027>030-043-044-078>080-089-090>093-098-271400-
COASTAL PLAIN

CITY           SKY/WX    TMP DP  RH WIND       PRES   REMARKS
AHOSKIE        NOT AVBL
CLINTON        SUNNY     73  63  72 CALM      29.97F
ELIZABETHTOWN  SUNNY     74  62  66 SW6       29.98S
GOLDSBORO      NOT AVBL
GREENVILLE     NOT AVBL
HAVELOCK       SUNNY     76  61  59 SW9       29.99R
KENANSVILLE    SUNNY     73  63  68 SW8       29.97S
KINSTON        SUNNY     75  61  60 SW7       29.97S
NEW BERN       SUNNY     74  62  66 SW8       29.98S
RICHLANDS      SUNNY     75  62  64 SW7       29.98S
ROCKY MOUNT    MOSUNNY   72  63  73 SW3       29.95S
WASHINGTON     SUNNY     74  61  63 SW6       29.96R
WHITEVILLE     SUNNY     74  64  69 SW6       29.98S

$$

AMZ130-135-150-152-154-156-158-170-250-252-270-ANZ085-086-088-633-658-670-271400-
MARINE OBSERVATIONS

STATION/POSITION TIME  TEMP    WIND        PRES    WAVE   SWELL
                       AIR SEA DIR/SP/G            HT/PER HT/PER
                 (UTC) (F)     (DEG/KT/KT) (MB)    (FT/S) (FT/S)
CHESAPEAKE LIGHT NOT AVBL
64 E VA BEACH    1250   66 62  200/  2/  4 1014.7    3/ 7   3/ 7
DUCK             1300   72 63  290/  5/  7 1013.6
2 E DUCK         1300      64                N/A     1/ 8
OREGON INLET     1300      69  220/ 11/ 12 1013.9
13E OREGON INLT  1248      67                N/A     3/ 6   2/ 6
HATTERAS CG      1300   75 72  210/  7/  9 1014.4
DIAMOND BUOY     1250   76 76  240/ 10/ 12 1014.5    4/ 8   3/ 8
CAPE LOOKOUT     1300   75     250/  7/ 10 1014.8
BEAUFORT LAB     1300   75 71  250/  5/  9 1014.5
30 SE NEW RVR IN 1308   76 77  260/ 12/ 14 1015.7
30 SE NEW RVR IN 1313      77                N/A     3/ 6
27 SE WRIGHTSVLE 1308   75 77  230/ 12/ 16 1015.1
5 SE WRIGHTSVLE  1308   75 74  230/  8/ 12 1015.3
225 S CAPE HAT   1250   76 77  270/ 10/ 12 1017.3    4/ 6   3/ 6
41 SE CHARLESTON 1300   75 74  230/ 12/ 14 1016.9

$$




USA.gov is the U.S. government's official web portal to all federal, state and local government web resources and services.